TimeCDT,TemperatureF,Dew PointF,Humidity,Sea Level PressureIn,VisibilityMPH,Wind Direction,Wind SpeedMPH,Gust SpeedMPH,PrecipitationIn,Events,Conditions,WindDirDegrees,DateUTC
12:15 AM,75.2,73.4,94,29.90,10.0,South,9.2,-,N/A,,Clear,180,2013-07-23 05:15:00
12:35 AM,75.2,73.4,94,29.91,10.0,SSW,5.8,-,N/A,,Clear,200,2013-07-23 05:35:00
12:55 AM,75.2,73.4,94,29.91,10.0,South,5.8,-,N/A,,Clear,190,2013-07-23 05:55:00
1:15 AM,75.2,73.4,94,29.91,10.0,South,5.8,-,N/A,,Clear,180,2013-07-23 06:15:00
1:35 AM,75.2,73.4,94,29.90,10.0,South,6.9,-,N/A,,Mostly Cloudy,180,2013-07-23 06:35:00
1:55 AM,75.2,73.4,94,29.90,10.0,South,6.9,-,N/A,,Mostly Cloudy,180,2013-07-23 06:55:00
2:15 AM,75.2,73.4,94,29.89,10.0,South,6.9,-,N/A,,Mostly Cloudy,180,2013-07-23 07:15:00
2:35 AM,75.2,73.4,94,29.88,10.0,South,6.9,-,N/A,,Mostly Cloudy,190,2013-07-23 07:35:00
2:55 AM,75.2,71.6,89,29.88,10.0,South,6.9,-,N/A,,Partly Cloudy,190,2013-07-23 07:55:00
3:15 AM,75.2,71.6,89,29.88,10.0,SSW,6.9,-,N/A,,Mostly Cloudy,200,2013-07-23 08:15:00
3:35 AM,75.2,71.6,89,29.87,10.0,SSW,5.8,-,N/A,,Mostly Cloudy,200,2013-07-23 08:35:00
3:55 AM,75.2,71.6,89,29.85,10.0,South,5.8,-,N/A,,Partly Cloudy,190,2013-07-23 08:55:00
4:16 AM,75.2,73.4,94,29.84,10.0,South,9.2,-,N/A,Thunderstorm,Clear,190,2013-07-23 09:16:00
4:35 AM,75.2,73.4,94,29.84,10.0,SSW,9.2,-,N/A,,Partly Cloudy,200,2013-07-23 09:35:00
4:55 AM,75.2,73.4,94,29.84,10.0,SSW,10.4,-,N/A,,Scattered Clouds,210,2013-07-23 09:55:00
5:15 AM,77.0,71.6,83,29.85,10.0,SSW,15.0,23.0,N/A,,Mostly Cloudy,210,2013-07-23 10:15:00
5:35 AM,77.0,69.8,78,29.86,10.0,SW,16.1,19.6,N/A,,Scattered Clouds,220,2013-07-23 10:35:00
5:56 AM,75.2,66.2,73,29.85,10.0,SSW,18.4,25.3,N/A,,Partly Cloudy,210,2013-07-23 10:56:00
6:15 AM,75.2,66.2,73,29.86,10.0,SSW,16.1,-,N/A,,Partly Cloudy,200,2013-07-23 11:15:00
6:35 AM,73.4,66.2,78,29.87,10.0,SSW,17.3,24.2,N/A,,Mostly Cloudy,200,2013-07-23 11:35:00
7:15 AM,75.2,69.8,83,29.98,10.0,North,26.5,35.7,N/A,Thunderstorm,Overcast,360,2013-07-23 12:15:00
7:35 AM,69.8,66.2,88,30.02,2.5,NNW,16.1,26.5,N/A,Thunderstorm,Thunderstorm,330,2013-07-23 12:35:00
7:55 AM,69.8,66.2,88,29.98,9.0,NNW,6.9,-,N/A,Thunderstorm,Thunderstorm,330,2013-07-23 12:55:00
8:15 AM,69.8,66.2,88,29.96,10.0,ESE,6.9,-,N/A,Thunderstorm,Mostly Cloudy,120,2013-07-23 13:15:00
8:35 AM,69.8,68.0,94,29.94,9.0,ESE,11.5,-,N/A,Thunderstorm,Thunderstorm,120,2013-07-23 13:35:00
8:55 AM,69.8,68.0,94,29.92,10.0,SE,12.7,-,0.02,Thunderstorm,Mostly Cloudy,130,2013-07-23 13:55:00
9:15 AM,69.8,69.8,100,29.92,10.0,SSE,12.7,-,N/A,,Clear,160,2013-07-23 14:15:00
9:16 AM,69.8,69.8,100,29.91,10.0,SSE,13.8,-,N/A,,Clear,150,2013-07-23 14:16:00
9:55 AM,71.6,69.8,94,29.93,10.0,SSW,16.1,-,N/A,,Partly Cloudy,210,2013-07-23 14:55:00
10:15 AM,71.6,68.0,88,29.94,10.0,SSW,17.3,23.0,N/A,,Mostly Cloudy,200,2013-07-23 15:15:00
10:35 AM,73.4,69.8,88,29.92,10.0,South,13.8,-,N/A,,Mostly Cloudy,190,2013-07-23 15:35:00
10:55 AM,75.2,69.8,83,29.92,10.0,South,12.7,-,N/A,,Mostly Cloudy,190,2013-07-23 15:55:00
11:15 AM,78.8,69.8,74,29.92,10.0,SSW,6.9,-,N/A,,Mostly Cloudy,200,2013-07-23 16:15:00
11:35 AM,78.8,69.8,74,29.92,10.0,South,6.9,-,N/A,,Overcast,180,2013-07-23 16:35:00
11:55 AM,78.8,69.8,74,29.92,10.0,SE,5.8,-,N/A,,Overcast,130,2013-07-23 16:55:00
12:15 PM,78.8,71.6,78,29.91,10.0,SE,4.6,-,N/A,,Overcast,140,2013-07-23 17:15:00
12:35 PM,80.6,71.6,74,29.91,10.0,SW,3.5,-,N/A,,Mostly Cloudy,220,2013-07-23 17:35:00
12:56 PM,80.6,69.8,70,29.90,10.0,South,5.8,-,N/A,,Scattered Clouds,190,2013-07-23 17:56:00
1:15 PM,82.4,71.6,70,29.88,10.0,SSW,10.4,-,N/A,,Partly Cloudy,210,2013-07-23 18:15:00
1:35 PM,84.2,69.8,62,29.87,10.0,SSW,12.7,-,N/A,,Clear,200,2013-07-23 18:35:00
1:55 PM,84.2,71.6,66,29.88,10.0,SW,11.5,-,N/A,,Clear,220,2013-07-23 18:55:00
2:15 PM,86.0,71.6,62,29.87,10.0,SW,11.5,-,N/A,,Clear,230,2013-07-23 19:15:00
2:35 PM,86.0,71.6,62,29.86,10.0,SW,8.1,-,N/A,,Clear,220,2013-07-23 19:35:00
2:55 PM,87.8,71.6,58,29.85,10.0,SSW,10.4,-,N/A,,Clear,200,2013-07-23 19:55:00
3:15 PM,87.8,71.6,58,29.83,10.0,SSW,12.7,-,N/A,,Clear,210,2013-07-23 20:15:00
3:35 PM,87.8,73.4,62,29.84,10.0,SW,6.9,-,N/A,,Clear,220,2013-07-23 20:35:00
3:55 PM,87.8,71.6,58,29.84,10.0,SSW,11.5,-,N/A,,Clear,210,2013-07-23 20:55:00
4:15 PM,84.2,73.4,70,29.84,10.0,SSW,9.2,-,N/A,,Clear,210,2013-07-23 21:15:00
4:35 PM,84.2,73.4,70,29.84,10.0,SW,5.8,-,N/A,,Clear,230,2013-07-23 21:35:00
4:55 PM,84.2,73.4,70,29.85,10.0,SW,6.9,-,N/A,Thunderstorm,Clear,230,2013-07-23 21:55:00
5:15 PM,84.2,75.2,74,29.84,10.0,SW,6.9,-,N/A,,Clear,220,2013-07-23 22:15:00
5:35 PM,82.4,75.2,79,29.83,10.0,SW,9.2,-,N/A,Thunderstorm,Clear,220,2013-07-23 22:35:00
5:55 PM,82.4,75.2,79,29.82,10.0,SW,9.2,-,N/A,Thunderstorm,Scattered Clouds,220,2013-07-23 22:55:00
6:15 PM,80.6,71.6,74,29.82,10.0,SSW,12.7,-,0.01,Thunderstorm,Partly Cloudy,210,2013-07-23 23:15:00
6:35 PM,78.8,68.0,69,29.85,10.0,NNW,4.6,-,0.01,,Clear,330,2013-07-23 23:35:00
6:55 PM,78.8,69.8,74,29.89,10.0,North,4.6,-,0.01,,Clear,360,2013-07-23 23:55:00
7:15 PM,78.8,71.6,78,29.90,10.0,NW,13.8,23.0,N/A,,Scattered Clouds,310,2013-07-24 00:15:00
7:55 PM,73.4,69.8,88,29.86,10.0,South,6.9,-,0.05,,Overcast,180,2013-07-24 00:55:00
8:15 PM,73.4,71.6,94,29.88,10.0,North,6.9,-,0.01,,Mostly Cloudy,350,2013-07-24 01:15:00
8:55 PM,73.4,71.6,94,29.87,10.0,Calm,Calm,-,0.01,,Clear,0,2013-07-24 01:55:00
9:15 PM,73.4,71.6,94,29.86,10.0,East,3.5,-,N/A,,Clear,90,2013-07-24 02:15:00
9:35 PM,73.4,69.8,88,29.86,8.0,North,3.5,-,N/A,,Clear,350,2013-07-24 02:35:00
9:55 PM,73.4,69.8,88,29.88,10.0,NNE,3.5,-,N/A,,Clear,20,2013-07-24 02:55:00
10:15 PM,73.4,69.8,88,29.87,10.0,Calm,Calm,-,N/A,,Clear,0,2013-07-24 03:15:00
10:55 PM,71.6,69.8,94,29.86,10.0,North,5.8,-,N/A,,Clear,360,2013-07-24 03:55:00
11:15 PM,71.6,69.8,94,29.87,10.0,WNW,5.8,-,N/A,,Clear,300,2013-07-24 04:15:00
11:35 PM,71.6,69.8,94,29.87,10.0,WNW,3.5,-,N/A,,Clear,290,2013-07-24 04:35:00
11:55 PM,71.6,69.8,94,29.88,10.0,North,4.6,-,N/A,,Clear,350,2013-07-24 04:55:00